Time,TemperatureF,DewpointF,PressureIn,WindDirection,WindDirectionDegrees,WindSpeedMPH,WindSpeedGustMPH,Humidity,HourlyPrecipIn,Conditions,Clouds,dailyrainin,SoftwareType,DateUTC
2013-08-26 00:01:00,76.1,71.2,30.24,South,170,2.0,4.0,85,0.00,,,0.00,WeatherCatV1.02B3,2013-08-26 05:01:00,
2013-08-26 00:06:00,76.1,71.2,30.24,ESE,113,0.0,0.0,85,0.00,,,0.00,WeatherCatV1.02B3,2013-08-26 05:06:00,
2013-08-26 00:11:00,76.2,71.3,30.24,ESE,113,2.0,2.0,85,0.00,,,0.00,WeatherCatV1.02B3,2013-08-26 05:11:00,
2013-08-26 00:16:00,76.2,71.3,30.24,SE,134,0.0,2.0,85,0.00,,,0.00,WeatherCatV1.02B3,2013-08-26 05:16:00,
2013-08-26 00:21:00,76.2,71.0,30.23,SE,134,0.0,0.0,84,0.00,,,0.00,WeatherCatV1.02B3,2013-08-26 05:21:00,
2013-08-26 00:26:00,76.2,71.3,30.23,SE,146,0.0,0.0,85,0.00,,,0.00,WeatherCatV1.02B3,2013-08-26 05:26:00,
2013-08-26 00:31:00,76.2,71.3,30.23,SSE,150,0.0,1.0,85,0.00,,,0.00,WeatherCatV1.02B3,2013-08-26 05:31:00,
2013-08-26 00:36:00,76.2,71.3,30.23,SSE,150,0.0,2.0,85,0.00,,,0.00,WeatherCatV1.02B3,2013-08-26 05:36:00,
2013-08-26 00:41:00,76.2,71.3,30.22,SSE,150,0.0,0.0,85,0.00,,,0.00,WeatherCatV1.02B3,2013-08-26 05:41:00,
2013-08-26 00:46:00,76.1,71.2,30.22,SSE,150,0.0,0.0,85,0.00,,,0.00,WeatherCatV1.02B3,2013-08-26 05:46:00,
2013-08-26 00:51:00,76.0,71.2,30.22,SSE,150,0.0,0.0,85,0.00,,,0.00,WeatherCatV1.02B3,2013-08-26 05:51:00,
2013-08-26 00:56:00,76.0,71.5,30.22,SSE,150,0.0,0.0,86,0.00,,,0.00,WeatherCatV1.02B3,2013-08-26 05:56:00,
2013-08-26 01:01:00,75.8,71.3,30.22,SSE,150,0.0,0.0,86,0.00,,,0.00,WeatherCatV1.02B3,2013-08-26 06:01:00,
2013-08-26 01:06:00,75.7,71.5,30.22,SSE,150,0.0,0.0,87,0.00,,,0.00,WeatherCatV1.02B3,2013-08-26 06:06:00,
2013-08-26 01:11:00,75.6,71.4,30.22,SSE,150,0.0,0.0,87,0.00,,,0.00,WeatherCatV1.02B3,2013-08-26 06:11:00,
2013-08-26 01:16:00,75.5,71.3,30.22,SSE,150,0.0,0.0,87,0.00,,,0.00,WeatherCatV1.02B3,2013-08-26 06:16:00,
2013-08-26 01:21:00,75.4,71.2,30.21,SSE,150,0.0,0.0,87,0.00,,,0.00,WeatherCatV1.02B3,2013-08-26 06:21:00,
2013-08-26 01:26:00,75.2,71.1,30.21,SSE,150,0.0,0.0,87,0.00,,,0.00,WeatherCatV1.02B3,2013-08-26 06:26:00,
2013-08-26 01:31:00,75.1,71.3,30.21,SSE,150,0.0,0.0,88,0.00,,,0.00,WeatherCatV1.02B3,2013-08-26 06:31:00,
2013-08-26 01:36:00,74.9,71.1,30.21,SSE,150,0.0,0.0,88,0.00,,,0.00,WeatherCatV1.02B3,2013-08-26 06:36:00,
2013-08-26 01:41:00,74.8,71.0,30.20,SSE,150,0.0,0.0,88,0.00,,,0.00,WeatherCatV1.02B3,2013-08-26 06:41:00,
2013-08-26 01:46:00,74.7,70.9,30.20,SSE,150,0.0,0.0,88,0.00,,,0.00,WeatherCatV1.02B3,2013-08-26 06:46:00,
2013-08-26 01:51:00,74.5,70.7,30.20,SSE,150,0.0,0.0,88,0.00,,,0.00,WeatherCatV1.02B3,2013-08-26 06:51:00,
2013-08-26 01:56:00,74.4,70.9,30.20,SSE,150,0.0,0.0,89,0.00,,,0.00,WeatherCatV1.02B3,2013-08-26 06:56:00,
2013-08-26 02:01:00,74.3,70.8,30.20,SSE,150,0.0,0.0,89,0.00,,,0.00,WeatherCatV1.02B3,2013-08-26 07:01:00,
2013-08-26 02:06:00,74.1,70.6,30.21,SSE,150,0.0,0.0,89,0.00,,,0.00,WeatherCatV1.02B3,2013-08-26 07:06:00,
2013-08-26 02:11:00,74.0,70.5,30.20,SSE,150,0.0,0.0,89,0.00,,,0.00,WeatherCatV1.02B3,2013-08-26 07:11:00,
2013-08-26 02:16:00,73.9,70.4,30.20,SSE,150,0.0,0.0,89,0.00,,,0.00,WeatherCatV1.02B3,2013-08-26 07:16:00,
2013-08-26 02:21:00,73.7,70.6,30.20,SSE,150,0.0,0.0,90,0.00,,,0.00,WeatherCatV1.02B3,2013-08-26 07:21:00,
2013-08-26 02:26:00,73.6,70.5,30.20,SSE,150,0.0,0.0,90,0.00,,,0.00,WeatherCatV1.02B3,2013-08-26 07:26:00,
2013-08-26 02:31:00,73.5,70.4,30.20,SSE,150,0.0,0.0,90,0.00,,,0.00,WeatherCatV1.02B3,2013-08-26 07:31:00,
2013-08-26 02:36:00,73.4,70.3,30.20,SSE,150,0.0,0.0,90,0.00,,,0.00,WeatherCatV1.02B3,2013-08-26 07:36:00,
2013-08-26 02:41:00,73.3,70.5,30.20,SSE,150,0.0,0.0,91,0.00,,,0.00,WeatherCatV1.02B3,2013-08-26 07:41:00,
2013-08-26 02:46:00,73.3,70.5,30.20,SSE,150,0.0,0.0,91,0.00,,,0.00,WeatherCatV1.02B3,2013-08-26 07:46:00,
2013-08-26 02:51:00,73.2,70.4,30.20,SSE,150,0.0,0.0,91,0.00,,,0.00,WeatherCatV1.02B3,2013-08-26 07:51:00,
2013-08-26 02:56:00,73.1,70.3,30.21,SSE,150,0.0,0.0,91,0.00,,,0.00,WeatherCatV1.02B3,2013-08-26 07:56:00,
2013-08-26 03:01:00,73.1,70.3,30.21,SSE,150,0.0,0.0,91,0.00,,,0.00,WeatherCatV1.02B3,2013-08-26 08:01:00,
2013-08-26 03:06:00,73.0,70.2,30.20,SSE,150,0.0,0.0,91,0.00,,,0.00,WeatherCatV1.02B3,2013-08-26 08:06:00,
2013-08-26 03:11:00,72.9,70.1,30.21,SSE,150,0.0,0.0,91,0.00,,,0.00,WeatherCatV1.02B3,2013-08-26 08:11:00,
2013-08-26 03:16:00,72.8,70.0,30.21,SSE,150,0.0,0.0,91,0.00,,,0.00,WeatherCatV1.02B3,2013-08-26 08:16:00,
2013-08-26 03:21:00,72.7,69.9,30.21,SSE,150,0.0,0.0,91,0.00,,,0.00,WeatherCatV1.02B3,2013-08-26 08:21:00,
2013-08-26 03:26:00,72.7,70.2,30.21,SSE,150,0.0,0.0,92,0.00,,,0.00,WeatherCatV1.02B3,2013-08-26 08:26:00,
2013-08-26 03:31:00,72.6,70.1,30.21,SSE,150,0.0,0.0,92,0.00,,,0.00,WeatherCatV1.02B3,2013-08-26 08:31:00,
2013-08-26 03:36:00,72.5,70.0,30.21,SSE,150,0.0,0.0,92,0.00,,,0.00,WeatherCatV1.02B3,2013-08-26 08:36:00,
2013-08-26 03:41:00,72.5,70.0,30.21,SSE,150,0.0,0.0,92,0.00,,,0.00,WeatherCatV1.02B3,2013-08-26 08:41:00,
2013-08-26 03:46:00,72.4,69.9,30.21,SSE,150,0.0,0.0,92,0.00,,,0.00,WeatherCatV1.02B3,2013-08-26 08:46:00,
2013-08-26 03:51:00,72.3,69.8,30.21,SSE,150,0.0,0.0,92,0.00,,,0.00,WeatherCatV1.02B3,2013-08-26 08:51:00,
2013-08-26 03:56:00,72.3,70.2,30.21,SSE,150,0.0,0.0,93,0.00,,,0.00,WeatherCatV1.02B3,2013-08-26 08:56:00,
2013-08-26 04:01:00,72.2,70.1,30.21,SSE,150,0.0,0.0,93,0.00,,,0.00,WeatherCatV1.02B3,2013-08-26 09:01:00,
2013-08-26 04:06:00,72.1,70.0,30.21,SSE,150,0.0,0.0,93,0.00,,,0.00,WeatherCatV1.02B3,2013-08-26 09:06:00,
2013-08-26 04:11:00,72.1,70.0,30.21,SSE,150,0.0,0.0,93,0.00,,,0.00,WeatherCatV1.02B3,2013-08-26 09:11:00,
2013-08-26 04:16:00,72.0,69.9,30.22,SSE,150,0.0,0.0,93,0.00,,,0.00,WeatherCatV1.02B3,2013-08-26 09:16:00,
2013-08-26 04:21:00,72.0,69.9,30.21,SSE,150,0.0,0.0,93,0.00,,,0.00,WeatherCatV1.02B3,2013-08-26 09:21:00,
2013-08-26 04:26:00,71.9,69.8,30.21,SSE,150,0.0,0.0,93,0.00,,,0.00,WeatherCatV1.02B3,2013-08-26 09:26:00,
2013-08-26 04:31:00,71.8,69.7,30.21,SSE,150,0.0,0.0,93,0.00,,,0.00,WeatherCatV1.02B3,2013-08-26 09:31:00,
2013-08-26 04:36:00,71.8,69.7,30.21,SSE,150,0.0,0.0,93,0.00,,,0.00,WeatherCatV1.02B3,2013-08-26 09:36:00,
2013-08-26 04:41:00,71.8,70.0,30.21,SSE,150,0.0,0.0,94,0.00,,,0.00,WeatherCatV1.02B3,2013-08-26 09:41:00,
2013-08-26 04:46:00,71.7,69.9,30.21,SSE,150,0.0,0.0,94,0.00,,,0.00,WeatherCatV1.02B3,2013-08-26 09:46:00,
2013-08-26 04:51:00,71.7,69.9,30.21,SSE,150,0.0,0.0,94,0.00,,,0.00,WeatherCatV1.02B3,2013-08-26 09:51:00,
2013-08-26 04:56:00,71.6,69.8,30.21,SSE,150,0.0,0.0,94,0.00,,,0.00,WeatherCatV1.02B3,2013-08-26 09:56:00,
2013-08-26 05:02:00,71.5,69.7,30.21,SSE,150,0.0,0.0,94,0.00,,,0.00,WeatherCatV1.02B3,2013-08-26 10:02:00,
2013-08-26 05:07:00,71.5,69.7,30.21,SSE,150,0.0,0.0,94,0.00,,,0.00,WeatherCatV1.02B3,2013-08-26 10:07:00,
2013-08-26 05:12:00,71.4,69.6,30.21,SSE,150,0.0,0.0,94,0.00,,,0.00,WeatherCatV1.02B3,2013-08-26 10:12:00,
2013-08-26 05:17:00,71.4,69.6,30.22,SSE,150,0.0,0.0,94,0.00,,,0.00,WeatherCatV1.02B3,2013-08-26 10:17:00,
2013-08-26 05:22:00,71.3,69.5,30.21,SSE,150,0.0,0.0,94,0.00,,,0.00,WeatherCatV1.02B3,2013-08-26 10:22:00,
2013-08-26 05:27:00,71.2,69.4,30.22,SSE,150,0.0,0.0,94,0.00,,,0.00,WeatherCatV1.02B3,2013-08-26 10:27:00,
2013-08-26 05:32:00,71.1,69.3,30.21,SSE,150,0.0,0.0,94,0.00,,,0.00,WeatherCatV1.02B3,2013-08-26 10:32:00,
2013-08-26 05:37:00,71.1,69.3,30.22,SSE,150,0.0,0.0,94,0.00,,,0.00,WeatherCatV1.02B3,2013-08-26 10:37:00,
2013-08-26 05:42:00,71.0,69.2,30.22,SSE,150,0.0,0.0,94,0.00,,,0.00,WeatherCatV1.02B3,2013-08-26 10:42:00,
2013-08-26 05:47:00,71.0,69.2,30.22,SSE,150,0.0,0.0,94,0.00,,,0.00,WeatherCatV1.02B3,2013-08-26 10:47:00,
2013-08-26 05:52:00,70.9,69.1,30.22,SSE,150,0.0,0.0,94,0.00,,,0.00,WeatherCatV1.02B3,2013-08-26 10:52:00,
2013-08-26 05:57:00,70.8,69.3,30.22,SSE,150,0.0,0.0,95,0.00,,,0.00,WeatherCatV1.02B3,2013-08-26 10:57:00,
2013-08-26 06:02:00,70.7,68.9,30.22,SSE,150,0.0,0.0,94,0.00,,,0.00,WeatherCatV1.02B3,2013-08-26 11:02:00,
2013-08-26 06:07:00,70.6,68.8,30.22,SSE,150,0.0,0.0,94,0.00,,,0.00,WeatherCatV1.02B3,2013-08-26 11:07:00,
2013-08-26 06:12:00,70.5,68.7,30.22,SSE,150,0.0,0.0,94,0.00,,,0.00,WeatherCatV1.02B3,2013-08-26 11:12:00,
2013-08-26 06:17:00,70.4,68.9,30.22,SSE,150,0.0,0.0,95,0.00,,,0.00,WeatherCatV1.02B3,2013-08-26 11:17:00,
2013-08-26 06:22:00,70.4,68.9,30.22,SSE,150,0.0,0.0,95,0.00,,,0.00,WeatherCatV1.02B3,2013-08-26 11:22:00,
2013-08-26 06:27:00,70.3,68.8,30.22,SSE,150,0.0,0.0,95,0.00,,,0.00,WeatherCatV1.02B3,2013-08-26 11:27:00,
2013-08-26 06:32:00,70.3,68.8,30.22,SSE,150,0.0,0.0,95,0.00,,,0.00,WeatherCatV1.02B3,2013-08-26 11:32:00,
2013-08-26 06:37:00,70.2,68.7,30.22,SSE,150,0.0,0.0,95,0.00,,,0.00,WeatherCatV1.02B3,2013-08-26 11:37:00,
2013-08-26 06:42:00,70.2,68.7,30.21,SSE,150,0.0,0.0,95,0.00,,,0.00,WeatherCatV1.02B3,2013-08-26 11:42:00,
2013-08-26 06:47:00,70.2,68.7,30.21,SSE,150,0.0,0.0,95,0.00,,,0.00,WeatherCatV1.02B3,2013-08-26 11:47:00,
2013-08-26 06:52:00,70.2,68.7,30.21,SSE,150,0.0,0.0,95,0.00,,,0.00,WeatherCatV1.02B3,2013-08-26 11:52:00,
2013-08-26 06:57:00,70.1,68.6,30.22,SSE,150,0.0,0.0,95,0.00,,,0.00,WeatherCatV1.02B3,2013-08-26 11:57:00,
2013-08-26 07:02:00,70.1,68.6,30.22,SSE,150,0.0,0.0,95,0.00,,,0.00,WeatherCatV1.02B3,2013-08-26 12:02:00,
2013-08-26 07:07:00,70.0,68.5,30.23,SSE,150,0.0,0.0,95,0.00,,,0.00,WeatherCatV1.02B3,2013-08-26 12:07:00,
2013-08-26 07:12:00,70.0,68.5,30.23,SSE,150,0.0,0.0,95,0.00,,,0.00,WeatherCatV1.02B3,2013-08-26 12:12:00,
2013-08-26 07:17:00,70.1,68.6,30.23,SSE,150,0.0,0.0,95,0.00,,,0.00,WeatherCatV1.02B3,2013-08-26 12:17:00,
2013-08-26 07:22:00,70.1,68.6,30.23,SSE,150,0.0,0.0,95,0.00,,,0.00,WeatherCatV1.02B3,2013-08-26 12:22:00,
2013-08-26 07:27:00,70.1,68.6,30.23,SSE,150,0.0,0.0,95,0.00,,,0.00,WeatherCatV1.02B3,2013-08-26 12:27:00,
2013-08-26 07:32:00,70.1,68.6,30.23,SSE,150,0.0,1.0,95,0.00,,,0.00,WeatherCatV1.02B3,2013-08-26 12:32:00,
2013-08-26 07:37:00,70.1,68.6,30.23,SSE,150,0.0,1.0,95,0.00,,,0.00,WeatherCatV1.02B3,2013-08-26 12:37:00,
2013-08-26 07:42:00,70.2,68.7,30.23,SSE,150,0.0,1.0,95,0.00,,,0.00,WeatherCatV1.02B3,2013-08-26 12:42:00,
2013-08-26 07:47:00,70.3,68.8,30.24,SSE,150,0.0,0.0,95,0.00,,,0.00,WeatherCatV1.02B3,2013-08-26 12:47:00,
2013-08-26 07:52:00,70.4,68.9,30.24,SSE,150,0.0,0.0,95,0.00,,,0.00,WeatherCatV1.02B3,2013-08-26 12:52:00,
2013-08-26 07:57:00,70.6,68.8,30.24,SSE,150,1.0,4.0,94,0.00,,,0.00,WeatherCatV1.02B3,2013-08-26 12:57:00,
2013-08-26 08:02:00,70.8,69.0,30.24,ENE,74,2.0,5.0,94,0.00,,,0.00,WeatherCatV1.02B3,2013-08-26 13:02:00,
2013-08-26 08:07:00,71.0,68.9,30.24,East,93,2.0,2.0,93,0.00,,,0.00,WeatherCatV1.02B3,2013-08-26 13:07:00,
2013-08-26 08:12:00,71.4,68.9,30.24,NE,40,0.0,0.0,92,0.00,,,0.00,WeatherCatV1.02B3,2013-08-26 13:12:00,
2013-08-26 08:17:00,71.7,68.9,30.24,ENE,67,0.0,0.0,91,0.00,,,0.00,WeatherCatV1.02B3,2013-08-26 13:17:00,
2013-08-26 08:22:00,72.1,69.0,30.24,SSE,162,0.0,4.0,90,0.00,,,0.00,WeatherCatV1.02B3,2013-08-26 13:22:00,
2013-08-26 08:27:00,72.6,68.8,30.24,SSW,200,0.0,0.0,88,0.00,,,0.00,WeatherCatV1.02B3,2013-08-26 13:27:00,
2013-08-26 08:32:00,72.9,68.5,30.24,ESE,103,0.0,5.0,86,0.00,,,0.00,WeatherCatV1.02B3,2013-08-26 13:32:00,
2013-08-26 08:37:00,73.4,68.6,30.24,SE,136,4.0,4.0,85,0.00,,,0.00,WeatherCatV1.02B3,2013-08-26 13:37:00,
2013-08-26 08:42:00,73.8,68.3,30.24,SE,136,0.0,0.0,83,0.00,,,0.00,WeatherCatV1.02B3,2013-08-26 13:42:00,
2013-08-26 08:47:00,74.3,68.8,30.24,East,83,0.0,3.0,83,0.00,,,0.00,WeatherCatV1.02B3,2013-08-26 13:47:00,
2013-08-26 08:52:00,74.6,68.0,30.24,South,172,0.0,5.0,80,0.00,,,0.00,WeatherCatV1.02B3,2013-08-26 13:52:00,
2013-08-26 08:57:00,74.9,67.9,30.24,SSE,150,0.0,1.0,79,0.00,,,0.00,WeatherCatV1.02B3,2013-08-26 13:57:00,
2013-08-26 09:02:00,75.2,67.9,30.24,SSE,161,1.0,2.0,78,0.00,,,0.00,WeatherCatV1.02B3,2013-08-26 14:02:00,
2013-08-26 09:07:00,75.4,68.0,30.24,SSE,161,0.0,1.0,78,0.00,,,0.00,WeatherCatV1.02B3,2013-08-26 14:07:00,
2013-08-26 09:12:00,75.7,68.3,30.24,SSE,161,0.0,1.0,78,0.00,,,0.00,WeatherCatV1.02B3,2013-08-26 14:12:00,
2013-08-26 09:17:00,76.1,68.3,30.24,SSE,162,4.0,7.0,77,0.00,,,0.00,WeatherCatV1.02B3,2013-08-26 14:17:00,
2013-08-26 09:22:00,76.2,67.7,30.24,ESE,118,0.0,2.0,75,0.00,,,0.00,WeatherCatV1.02B3,2013-08-26 14:22:00,
2013-08-26 09:27:00,76.5,67.6,30.24,SE,143,0.0,4.0,74,0.00,,,0.00,WeatherCatV1.02B3,2013-08-26 14:27:00,
2013-08-26 09:32:00,76.7,67.4,30.24,SSE,165,0.0,4.0,73,0.00,,,0.00,WeatherCatV1.02B3,2013-08-26 14:32:00,
2013-08-26 09:37:00,76.9,67.6,30.25,SSE,163,0.0,0.0,73,0.00,,,0.00,WeatherCatV1.02B3,2013-08-26 14:37:00,
2013-08-26 09:42:00,77.1,67.8,30.25,SSE,163,0.0,5.0,73,0.00,,,0.00,WeatherCatV1.02B3,2013-08-26 14:42:00,
2013-08-26 09:47:00,77.5,67.7,30.25,NE,42,0.0,5.0,72,0.00,,,0.00,WeatherCatV1.02B3,2013-08-26 14:47:00,
2013-08-26 09:52:00,77.8,68.0,30.25,SE,140,1.0,5.0,72,0.00,,,0.00,WeatherCatV1.02B3,2013-08-26 14:52:00,
2013-08-26 09:57:00,78.0,68.6,30.25,ENE,78,0.0,5.0,73,0.00,,,0.00,WeatherCatV1.02B3,2013-08-26 14:57:00,
2013-08-26 10:02:00,78.2,68.4,30.25,SE,130,0.0,1.0,72,0.00,,,0.00,WeatherCatV1.02B3,2013-08-26 15:02:00,
2013-08-26 10:07:00,78.8,68.6,30.25,ENE,65,0.0,3.0,71,0.00,,,0.00,WeatherCatV1.02B3,2013-08-26 15:07:00,
2013-08-26 10:12:00,79.3,68.6,30.25,NE,51,0.0,1.0,70,0.00,,,0.00,WeatherCatV1.02B3,2013-08-26 15:12:00,
2013-08-26 10:17:00,79.4,69.2,30.26,NE,51,0.0,1.0,71,0.00,,,0.00,WeatherCatV1.02B3,2013-08-26 15:17:00,
2013-08-26 10:22:00,79.5,68.8,30.26,ESE,121,0.0,0.0,70,0.00,,,0.00,WeatherCatV1.02B3,2013-08-26 15:22:00,
2013-08-26 10:27:00,79.7,69.0,30.26,SE,126,0.0,2.0,70,0.00,,,0.00,WeatherCatV1.02B3,2013-08-26 15:27:00,
2013-08-26 10:32:00,80.0,69.7,30.26,East,91,0.0,1.0,71,0.00,,,0.00,WeatherCatV1.02B3,2013-08-26 15:32:00,
2013-08-26 10:37:00,80.3,68.8,30.26,ENE,69,0.0,4.0,68,0.00,,,0.00,WeatherCatV1.02B3,2013-08-26 15:37:00,
2013-08-26 10:42:00,80.6,69.0,30.26,East,101,1.0,4.0,68,0.00,,,0.00,WeatherCatV1.02B3,2013-08-26 15:42:00,
2013-08-26 10:47:00,80.9,69.3,30.26,South,175,0.0,4.0,68,0.00,,,0.00,WeatherCatV1.02B3,2013-08-26 15:47:00,
2013-08-26 10:52:00,81.2,69.2,30.26,South,176,0.0,0.0,67,0.00,,,0.00,WeatherCatV1.02B3,2013-08-26 15:52:00,
2013-08-26 10:57:00,81.4,69.8,30.26,ENE,73,1.0,7.0,68,0.00,,,0.00,WeatherCatV1.02B3,2013-08-26 15:57:00,
2013-08-26 11:02:00,81.8,68.9,30.26,East,90,0.0,5.0,65,0.00,,,0.00,WeatherCatV1.02B3,2013-08-26 16:02:00,
2013-08-26 11:07:00,81.9,69.8,30.26,East,90,0.0,2.0,67,0.00,,,0.00,WeatherCatV1.02B3,2013-08-26 16:07:00,
2013-08-26 11:12:00,82.0,69.0,30.25,ESE,113,0.0,2.0,65,0.00,,,0.00,WeatherCatV1.02B3,2013-08-26 16:12:00,
2013-08-26 11:17:00,82.1,69.1,30.25,SSE,150,0.0,1.0,65,0.00,,,0.00,WeatherCatV1.02B3,2013-08-26 16:17:00,
2013-08-26 11:22:00,82.2,68.3,30.25,NE,48,0.0,4.0,63,0.00,,,0.00,WeatherCatV1.02B3,2013-08-26 16:22:00,
2013-08-26 11:27:00,82.4,68.5,30.25,South,186,0.0,6.0,63,0.00,,,0.00,WeatherCatV1.02B3,2013-08-26 16:27:00,
2013-08-26 11:32:00,82.6,69.2,30.25,South,182,0.0,3.0,64,0.00,,,0.00,WeatherCatV1.02B3,2013-08-26 16:32:00,
2013-08-26 11:37:00,82.8,69.3,30.25,SSE,164,5.0,7.0,64,0.00,,,0.00,WeatherCatV1.02B3,2013-08-26 16:37:00,
2013-08-26 11:42:00,82.9,68.5,30.25,South,173,4.0,6.0,62,0.00,,,0.00,WeatherCatV1.02B3,2013-08-26 16:42:00,
2013-08-26 11:47:00,83.0,68.6,30.26,South,170,2.0,5.0,62,0.00,,,0.00,WeatherCatV1.02B3,2013-08-26 16:47:00,
2013-08-26 11:52:00,83.1,68.2,30.25,South,186,1.0,3.0,61,0.00,,,0.00,WeatherCatV1.02B3,2013-08-26 16:52:00,
2013-08-26 11:57:00,83.5,69.1,30.25,SSE,163,0.0,7.0,62,0.00,,,0.00,WeatherCatV1.02B3,2013-08-26 16:57:00,
2013-08-26 12:02:00,83.8,69.4,30.25,SSE,167,5.0,5.0,62,0.00,,,0.00,WeatherCatV1.02B3,2013-08-26 17:02:00,
2013-08-26 12:07:00,84.1,69.2,30.25,East,86,0.0,3.0,61,0.00,,,0.00,WeatherCatV1.02B3,2013-08-26 17:07:00,
2013-08-26 12:12:00,84.4,69.4,30.25,SSE,159,0.0,4.0,61,0.00,,,0.00,WeatherCatV1.02B3,2013-08-26 17:12:00,
2013-08-26 12:17:00,84.6,68.2,30.25,ENE,67,0.0,2.0,58,0.00,,,0.00,WeatherCatV1.02B3,2013-08-26 17:17:00,
2013-08-26 12:22:00,84.7,68.3,30.24,ENE,71,0.0,5.0,58,0.00,,,0.00,WeatherCatV1.02B3,2013-08-26 17:22:00,
2013-08-26 12:27:00,84.9,67.9,30.24,East,95,0.0,0.0,57,0.00,,,0.00,WeatherCatV1.02B3,2013-08-26 17:27:00,
2013-08-26 12:32:00,85.2,69.7,30.24,East,95,0.0,2.0,60,0.00,,,0.00,WeatherCatV1.02B3,2013-08-26 17:32:00,
2013-08-26 12:37:00,85.3,70.3,30.24,ENE,66,0.0,2.0,61,0.00,,,0.00,WeatherCatV1.02B3,2013-08-26 17:37:00,
2013-08-26 12:42:00,85.3,68.8,30.24,East,96,0.0,1.0,58,0.00,,,0.00,WeatherCatV1.02B3,2013-08-26 17:42:00,
2013-08-26 12:47:00,85.4,68.4,30.24,NE,53,0.0,3.0,57,0.00,,,0.00,WeatherCatV1.02B3,2013-08-26 17:47:00,
2013-08-26 12:52:00,85.7,68.7,30.24,SE,141,0.0,0.0,57,0.00,,,0.00,WeatherCatV1.02B3,2013-08-26 17:52:00,
2013-08-26 12:57:00,85.9,68.9,30.24,NNE,28,0.0,7.0,57,0.00,,,0.00,WeatherCatV1.02B3,2013-08-26 17:57:00,
2013-08-26 13:02:00,86.1,69.6,30.23,ENE,74,0.0,6.0,58,0.00,,,0.00,WeatherCatV1.02B3,2013-08-26 18:02:00,
2013-08-26 13:07:00,86.2,69.7,30.23,NE,36,0.0,1.0,58,0.00,,,0.00,WeatherCatV1.02B3,2013-08-26 18:07:00,
2013-08-26 13:12:00,86.4,68.8,30.23,South,172,1.0,4.0,56,0.00,,,0.00,WeatherCatV1.02B3,2013-08-26 18:12:00,
2013-08-26 13:17:00,86.5,68.4,30.23,ENE,78,5.0,5.0,55,0.00,,,0.00,WeatherCatV1.02B3,2013-08-26 18:17:00,
2013-08-26 13:22:00,86.6,70.5,30.23,NNE,32,0.0,3.0,59,0.00,,,0.00,WeatherCatV1.02B3,2013-08-26 18:22:00,
2013-08-26 13:27:00,86.7,68.0,30.22,East,89,0.0,0.0,54,0.00,,,0.00,WeatherCatV1.02B3,2013-08-26 18:27:00,
2013-08-26 13:32:00,86.8,69.2,30.22,East,79,6.0,7.0,56,0.00,,,0.00,WeatherCatV1.02B3,2013-08-26 18:32:00,
2013-08-26 13:37:00,86.6,67.9,30.22,North,350,0.0,5.0,54,0.00,,,0.00,WeatherCatV1.02B3,2013-08-26 18:37:00,
2013-08-26 13:42:00,86.6,69.5,30.22,North,351,0.0,0.0,57,0.00,,,0.00,WeatherCatV1.02B3,2013-08-26 18:42:00,
2013-08-26 13:47:00,86.8,70.2,30.21,NNE,24,0.0,0.0,58,0.00,,,0.00,WeatherCatV1.02B3,2013-08-26 18:47:00,
2013-08-26 13:52:00,87.1,68.9,30.21,SSE,153,4.0,4.0,55,0.00,,,0.00,WeatherCatV1.02B3,2013-08-26 18:52:00,
2013-08-26 13:57:00,87.2,69.0,30.21,ENE,78,4.0,4.0,55,0.00,,,0.00,WeatherCatV1.02B3,2013-08-26 18:57:00,
2013-08-26 14:02:00,87.8,68.5,30.21,East,87,0.0,3.0,53,0.00,,,0.00,WeatherCatV1.02B3,2013-08-26 19:02:00,
2013-08-26 14:07:00,87.7,69.0,30.21,SSE,168,0.0,4.0,54,0.00,,,0.00,WeatherCatV1.02B3,2013-08-26 19:07:00,
2013-08-26 14:12:00,87.7,69.0,30.20,East,86,0.0,5.0,54,0.00,,,0.00,WeatherCatV1.02B3,2013-08-26 19:12:00,
2013-08-26 14:17:00,87.7,69.5,30.20,SSE,167,2.0,5.0,55,0.00,,,0.00,WeatherCatV1.02B3,2013-08-26 19:17:00,
2013-08-26 14:22:00,87.8,69.6,30.20,SSE,167,0.0,0.0,55,0.00,,,0.00,WeatherCatV1.02B3,2013-08-26 19:22:00,
2013-08-26 14:27:00,87.7,69.0,30.19,NNE,17,0.0,0.0,54,0.00,,,0.00,WeatherCatV1.02B3,2013-08-26 19:27:00,
2013-08-26 14:32:00,87.7,69.0,30.19,North,5,0.0,1.0,54,0.00,,,0.00,WeatherCatV1.02B3,2013-08-26 19:32:00,
2013-08-26 14:37:00,87.8,67.4,30.19,ENE,70,0.0,0.0,51,0.00,,,0.00,WeatherCatV1.02B3,2013-08-26 19:37:00,
2013-08-26 14:42:00,87.8,69.0,30.19,North,10,4.0,5.0,54,0.00,,,0.00,WeatherCatV1.02B3,2013-08-26 19:42:00,
2013-08-26 14:47:00,88.0,69.8,30.19,NE,40,2.0,5.0,55,0.00,,,0.00,WeatherCatV1.02B3,2013-08-26 19:47:00,
2013-08-26 14:52:00,88.3,69.5,30.18,ENE,64,0.0,0.0,54,0.00,,,0.00,WeatherCatV1.02B3,2013-08-26 19:52:00,
2013-08-26 14:57:00,88.3,69.5,30.18,SSE,165,0.0,5.0,54,0.00,,,0.00,WeatherCatV1.02B3,2013-08-26 19:57:00,
2013-08-26 15:02:00,88.2,68.9,30.18,SSE,165,0.0,4.0,53,0.00,,,0.00,WeatherCatV1.02B3,2013-08-26 20:02:00,
2013-08-26 15:07:00,88.7,68.2,30.18,East,84,0.0,2.0,51,0.00,,,0.00,WeatherCatV1.02B3,2013-08-26 20:07:00,
2013-08-26 15:12:00,88.6,68.7,30.18,ENE,63,2.0,2.0,52,0.00,,,0.00,WeatherCatV1.02B3,2013-08-26 20:12:00,
2013-08-26 15:17:00,88.5,68.6,30.18,ENE,71,1.0,1.0,52,0.00,,,0.00,WeatherCatV1.02B3,2013-08-26 20:17:00,
2013-08-26 15:22:00,88.6,69.2,30.17,East,84,0.0,2.0,53,0.00,,,0.00,WeatherCatV1.02B3,2013-08-26 20:22:00,
2013-08-26 15:27:00,89.1,68.6,30.18,SE,134,6.0,11.0,51,0.00,,,0.00,WeatherCatV1.02B3,2013-08-26 20:27:00,
2013-08-26 15:32:00,88.5,67.4,30.18,NE,44,2.0,8.0,50,0.00,,,0.00,WeatherCatV1.02B3,2013-08-26 20:32:00,
2013-08-26 15:37:00,87.7,67.3,30.17,ENE,72,0.0,2.0,51,0.00,,,0.00,WeatherCatV1.02B3,2013-08-26 20:37:00,
2013-08-26 15:42:00,87.5,66.5,30.17,ENE,69,0.0,1.0,50,0.00,,,0.00,WeatherCatV1.02B3,2013-08-26 20:42:00,
2013-08-26 15:47:00,87.8,67.9,30.17,ENE,69,0.0,3.0,52,0.00,,,0.00,WeatherCatV1.02B3,2013-08-26 20:47:00,
2013-08-26 15:52:00,87.3,68.0,30.17,SSE,163,0.0,0.0,53,0.00,,,0.00,WeatherCatV1.02B3,2013-08-26 20:52:00,
2013-08-26 15:57:00,88.0,68.7,30.17,East,80,0.0,0.0,53,0.00,,,0.00,WeatherCatV1.02B3,2013-08-26 20:57:00,
2013-08-26 16:02:00,88.1,66.5,30.17,ESE,107,1.0,8.0,49,0.00,,,0.00,WeatherCatV1.02B3,2013-08-26 21:02:00,
2013-08-26 16:07:00,87.5,67.1,30.17,NNE,25,0.0,1.0,51,0.00,,,0.00,WeatherCatV1.02B3,2013-08-26 21:07:00,
2013-08-26 16:12:00,87.9,68.0,30.17,East,90,5.0,5.0,52,0.00,,,0.00,WeatherCatV1.02B3,2013-08-26 21:12:00,
2013-08-26 16:17:00,87.9,68.0,30.17,NE,42,1.0,1.0,52,0.00,,,0.00,WeatherCatV1.02B3,2013-08-26 21:17:00,
2013-08-26 16:22:00,88.5,66.9,30.16,North,0,1.0,6.0,49,0.00,,,0.00,WeatherCatV1.02B3,2013-08-26 21:22:00,
2013-08-26 16:27:00,88.7,67.6,30.16,NE,40,4.0,4.0,50,0.00,,,0.00,WeatherCatV1.02B3,2013-08-26 21:27:00,
2013-08-26 16:32:00,87.9,66.9,30.16,ENE,74,0.0,0.0,50,0.00,,,0.00,WeatherCatV1.02B3,2013-08-26 21:32:00,
2013-08-26 16:37:00,87.1,66.7,30.16,NE,42,0.0,2.0,51,0.00,,,0.00,WeatherCatV1.02B3,2013-08-26 21:37:00,
2013-08-26 16:42:00,87.5,65.9,30.16,ENE,78,6.0,6.0,49,0.00,,,0.00,WeatherCatV1.02B3,2013-08-26 21:42:00,
2013-08-26 16:47:00,87.4,67.0,30.16,East,100,1.0,10.0,51,0.00,,,0.00,WeatherCatV1.02B3,2013-08-26 21:47:00,
2013-08-26 16:52:00,88.1,67.7,30.16,East,100,0.0,4.0,51,0.00,,,0.00,WeatherCatV1.02B3,2013-08-26 21:52:00,
2013-08-26 16:57:00,88.2,67.2,30.16,East,86,0.0,3.0,50,0.00,,,0.00,WeatherCatV1.02B3,2013-08-26 21:57:00,
2013-08-26 17:02:00,88.2,66.6,30.16,North,11,0.0,4.0,49,0.00,,,0.00,WeatherCatV1.02B3,2013-08-26 22:02:00,
2013-08-26 17:07:00,87.6,67.8,30.16,East,87,1.0,1.0,52,0.00,,,0.00,WeatherCatV1.02B3,2013-08-26 22:07:00,
2013-08-26 17:12:00,87.6,66.6,30.16,East,82,0.0,3.0,50,0.00,,,0.00,WeatherCatV1.02B3,2013-08-26 22:12:00,
2013-08-26 17:17:00,87.4,66.4,30.16,East,80,0.0,4.0,50,0.00,,,0.00,WeatherCatV1.02B3,2013-08-26 22:17:00,
2013-08-26 17:22:00,86.8,67.6,30.16,ENE,71,2.0,5.0,53,0.00,,,0.00,WeatherCatV1.02B3,2013-08-26 22:22:00,
2013-08-26 17:27:00,86.7,67.5,30.15,ENE,71,0.0,0.0,53,0.00,,,0.00,WeatherCatV1.02B3,2013-08-26 22:27:00,
2013-08-26 17:32:00,86.6,67.4,30.15,East,88,2.0,2.0,53,0.00,,,0.00,WeatherCatV1.02B3,2013-08-26 22:32:00,
2013-08-26 17:37:00,86.4,67.2,30.15,ENE,66,0.0,1.0,53,0.00,,,0.00,WeatherCatV1.02B3,2013-08-26 22:37:00,
2013-08-26 17:42:00,86.1,66.4,30.15,East,96,0.0,8.0,52,0.00,,,0.00,WeatherCatV1.02B3,2013-08-26 22:42:00,
2013-08-26 17:47:00,85.6,66.5,30.15,ENE,63,0.0,8.0,53,0.00,,,0.00,WeatherCatV1.02B3,2013-08-26 22:47:00,
2013-08-26 17:52:00,85.3,66.7,30.15,ENE,76,2.0,2.0,54,0.00,,,0.00,WeatherCatV1.02B3,2013-08-26 22:52:00,
2013-08-26 17:57:00,85.1,67.1,30.15,East,82,0.0,3.0,55,0.00,,,0.00,WeatherCatV1.02B3,2013-08-26 22:57:00,
2013-08-26 18:02:00,84.9,66.4,30.15,ENE,69,0.0,0.0,54,0.00,,,0.00,WeatherCatV1.02B3,2013-08-26 23:02:00,
2013-08-26 18:07:00,84.7,67.2,30.15,ENE,59,0.0,0.0,56,0.00,,,0.00,WeatherCatV1.02B3,2013-08-26 23:07:00,
2013-08-26 18:12:00,84.5,66.0,30.15,SSW,196,0.0,3.0,54,0.00,,,0.00,WeatherCatV1.02B3,2013-08-26 23:12:00,
2013-08-26 18:17:00,84.4,67.0,30.15,NE,36,0.0,1.0,56,0.00,,,0.00,WeatherCatV1.02B3,2013-08-26 23:17:00,
2013-08-26 18:22:00,84.3,66.3,30.15,NE,38,0.0,3.0,55,0.00,,,0.00,WeatherCatV1.02B3,2013-08-26 23:22:00,
2013-08-26 18:27:00,84.3,66.9,30.15,NE,38,0.0,0.0,56,0.00,,,0.00,WeatherCatV1.02B3,2013-08-26 23:27:00,
2013-08-26 18:32:00,84.1,66.7,30.15,East,98,0.0,7.0,56,0.00,,,0.00,WeatherCatV1.02B3,2013-08-26 23:32:00,
2013-08-26 18:37:00,83.9,67.0,30.15,East,98,0.0,1.0,57,0.00,,,0.00,WeatherCatV1.02B3,2013-08-26 23:37:00,
2013-08-26 18:42:00,83.6,66.7,30.15,East,98,0.0,0.0,57,0.00,,,0.00,WeatherCatV1.02B3,2013-08-26 23:42:00,
2013-08-26 18:47:00,83.3,66.4,30.15,East,98,0.0,0.0,57,0.00,,,0.00,WeatherCatV1.02B3,2013-08-26 23:47:00,
2013-08-26 18:52:00,83.0,67.2,30.15,East,98,0.0,0.0,59,0.00,,,0.00,WeatherCatV1.02B3,2013-08-26 23:52:00,
2013-08-26 18:57:00,82.7,66.4,30.15,SE,136,0.0,0.0,58,0.00,,,0.00,WeatherCatV1.02B3,2013-08-26 23:57:00,
2013-08-26 19:02:00,82.3,67.0,30.15,SE,136,0.0,0.0,60,0.00,,,0.00,WeatherCatV1.02B3,2013-08-27 00:02:00,
2013-08-26 19:07:00,82.0,67.2,30.15,SE,136,0.0,0.0,61,0.00,,,0.00,WeatherCatV1.02B3,2013-08-27 00:07:00,
2013-08-26 19:12:00,81.6,67.3,30.14,SE,136,0.0,0.0,62,0.00,,,0.00,WeatherCatV1.02B3,2013-08-27 00:12:00,
2013-08-26 19:17:00,81.2,66.9,30.15,SE,136,0.0,0.0,62,0.00,,,0.00,WeatherCatV1.02B3,2013-08-27 00:17:00,
2013-08-26 19:22:00,81.0,68.1,30.15,SE,136,0.0,0.0,65,0.00,,,0.00,WeatherCatV1.02B3,2013-08-27 00:22:00,
2013-08-26 19:27:00,80.6,67.3,30.15,SE,136,0.0,0.0,64,0.00,,,0.00,WeatherCatV1.02B3,2013-08-27 00:27:00,
2013-08-26 19:32:00,80.3,67.4,30.15,SE,136,0.0,0.0,65,0.00,,,0.00,WeatherCatV1.02B3,2013-08-27 00:32:00,
2013-08-26 19:37:00,79.9,67.5,30.15,SE,136,0.0,0.0,66,0.00,,,0.00,WeatherCatV1.02B3,2013-08-27 00:37:00,
2013-08-26 19:42:00,79.5,67.1,30.15,SE,136,0.0,0.0,66,0.00,,,0.00,WeatherCatV1.02B3,2013-08-27 00:42:00,
2013-08-26 19:47:00,79.1,67.2,30.15,SE,136,0.0,0.0,67,0.00,,,0.00,WeatherCatV1.02B3,2013-08-27 00:47:00,
2013-08-26 19:52:00,78.8,67.3,30.15,SE,136,0.0,0.0,68,0.00,,,0.00,WeatherCatV1.02B3,2013-08-27 00:52:00,
2013-08-26 19:57:00,78.5,67.0,30.15,SE,136,0.0,0.0,68,0.00,,,0.00,WeatherCatV1.02B3,2013-08-27 00:57:00,
2013-08-26 20:02:00,78.2,66.8,30.15,SE,136,0.0,0.0,68,0.00,,,0.00,WeatherCatV1.02B3,2013-08-27 01:02:00,
2013-08-26 20:07:00,77.9,66.9,30.15,SE,136,0.0,0.0,69,0.00,,,0.00,WeatherCatV1.02B3,2013-08-27 01:07:00,
2013-08-26 20:12:00,77.6,66.6,30.15,SE,136,0.0,0.0,69,0.00,,,0.00,WeatherCatV1.02B3,2013-08-27 01:12:00,
2013-08-26 20:17:00,77.4,66.8,30.16,SE,136,0.0,0.0,70,0.00,,,0.00,WeatherCatV1.02B3,2013-08-27 01:17:00,
2013-08-26 20:22:00,77.1,66.5,30.16,SE,136,0.0,0.0,70,0.00,,,0.00,WeatherCatV1.02B3,2013-08-27 01:22:00,
2013-08-26 20:27:00,76.9,66.8,30.16,SE,136,0.0,0.0,71,0.00,,,0.00,WeatherCatV1.02B3,2013-08-27 01:27:00,
2013-08-26 20:32:00,76.7,66.6,30.16,SE,136,0.0,0.0,71,0.00,,,0.00,WeatherCatV1.02B3,2013-08-27 01:32:00,
2013-08-26 20:37:00,76.4,66.7,30.16,SE,136,0.0,0.0,72,0.00,,,0.00,WeatherCatV1.02B3,2013-08-27 01:37:00,
2013-08-26 20:42:00,76.1,66.4,30.16,SE,136,0.0,0.0,72,0.00,,,0.00,WeatherCatV1.02B3,2013-08-27 01:42:00,
2013-08-26 20:47:00,76.0,66.3,30.16,SE,136,0.0,0.0,72,0.00,,,0.00,WeatherCatV1.02B3,2013-08-27 01:47:00,
2013-08-26 20:52:00,75.8,66.5,30.16,SE,136,0.0,0.0,73,0.00,,,0.00,WeatherCatV1.02B3,2013-08-27 01:52:00,
2013-08-26 20:57:00,75.6,66.3,30.16,SE,136,0.0,0.0,73,0.00,,,0.00,WeatherCatV1.02B3,2013-08-27 01:57:00,
2013-08-26 21:02:00,75.4,66.5,30.17,SE,136,0.0,0.0,74,0.00,,,0.00,WeatherCatV1.02B3,2013-08-27 02:02:00,
2013-08-26 21:07:00,75.2,66.3,30.16,SE,136,0.0,0.0,74,0.00,,,0.00,WeatherCatV1.02B3,2013-08-27 02:07:00,
2013-08-26 21:12:00,75.0,66.5,30.17,SE,136,0.0,0.0,75,0.00,,,0.00,WeatherCatV1.02B3,2013-08-27 02:12:00,
2013-08-26 21:17:00,74.8,66.3,30.17,SE,136,0.0,0.0,75,0.00,,,0.00,WeatherCatV1.02B3,2013-08-27 02:17:00,
2013-08-26 21:22:00,74.6,66.5,30.17,SE,136,0.0,0.0,76,0.00,,,0.00,WeatherCatV1.02B3,2013-08-27 02:22:00,
2013-08-26 21:27:00,74.4,66.3,30.17,SE,136,0.0,0.0,76,0.00,,,0.00,WeatherCatV1.02B3,2013-08-27 02:27:00,
2013-08-26 21:32:00,74.3,66.2,30.17,SE,136,0.0,0.0,76,0.00,,,0.00,WeatherCatV1.02B3,2013-08-27 02:32:00,
2013-08-26 21:37:00,74.1,66.0,30.17,SE,136,0.0,0.0,76,0.00,,,0.00,WeatherCatV1.02B3,2013-08-27 02:37:00,
2013-08-26 21:42:00,74.0,66.3,30.17,SE,136,0.0,0.0,77,0.00,,,0.00,WeatherCatV1.02B3,2013-08-27 02:42:00,
2013-08-26 21:47:00,73.8,66.5,30.17,SE,135,0.0,1.0,78,0.00,,,0.00,WeatherCatV1.02B3,2013-08-27 02:47:00,
2013-08-26 21:52:00,73.7,66.4,30.17,SE,135,0.0,0.0,78,0.00,,,0.00,WeatherCatV1.02B3,2013-08-27 02:52:00,
2013-08-26 21:57:00,73.6,66.3,30.17,SE,135,0.0,0.0,78,0.00,,,0.00,WeatherCatV1.02B3,2013-08-27 02:57:00,
2013-08-26 22:02:00,73.4,66.1,30.17,SE,135,0.0,0.0,78,0.00,,,0.00,WeatherCatV1.02B3,2013-08-27 03:02:00,
2013-08-26 22:07:00,73.3,66.0,30.17,SE,135,0.0,0.0,78,0.00,,,0.00,WeatherCatV1.02B3,2013-08-27 03:07:00,
2013-08-26 22:12:00,73.2,65.9,30.17,SE,135,0.0,0.0,78,0.00,,,0.00,WeatherCatV1.02B3,2013-08-27 03:12:00,
2013-08-26 22:17:00,73.1,65.8,30.17,SE,135,0.0,0.0,78,0.00,,,0.00,WeatherCatV1.02B3,2013-08-27 03:17:00,
2013-08-26 22:22:00,73.0,66.1,30.17,SE,135,0.0,0.0,79,0.00,,,0.00,WeatherCatV1.02B3,2013-08-27 03:22:00,
2013-08-26 22:27:00,72.9,66.0,30.17,SE,135,0.0,0.0,79,0.00,,,0.00,WeatherCatV1.02B3,2013-08-27 03:27:00,
2013-08-26 22:32:00,72.7,65.8,30.17,SE,135,0.0,0.0,79,0.00,,,0.00,WeatherCatV1.02B3,2013-08-27 03:32:00,
2013-08-26 22:37:00,72.6,65.7,30.17,SE,135,0.0,0.0,79,0.00,,,0.00,WeatherCatV1.02B3,2013-08-27 03:37:00,
2013-08-26 22:42:00,72.5,65.2,30.18,SE,135,0.0,0.0,78,0.00,,,0.00,WeatherCatV1.02B3,2013-08-27 03:42:00,
2013-08-26 22:47:00,72.4,65.1,30.18,SE,135,0.0,0.0,78,0.00,,,0.00,WeatherCatV1.02B3,2013-08-27 03:47:00,
2013-08-26 22:52:00,72.3,65.0,30.18,SE,135,0.0,0.0,78,0.00,,,0.00,WeatherCatV1.02B3,2013-08-27 03:52:00,
2013-08-26 22:57:00,72.2,65.3,30.18,SE,135,0.0,0.0,79,0.00,,,0.00,WeatherCatV1.02B3,2013-08-27 03:57:00,
2013-08-26 23:01:00,72.1,65.2,30.18,SE,135,0.0,0.0,79,0.00,,,0.00,WeatherCatV1.02B3,2013-08-27 04:01:00,
2013-08-26 23:06:00,72.1,65.2,30.18,SE,135,0.0,0.0,79,0.00,,,0.00,WeatherCatV1.02B3,2013-08-27 04:06:00,
2013-08-26 23:11:00,72.0,65.1,30.18,SE,135,0.0,0.0,79,0.00,,,0.00,WeatherCatV1.02B3,2013-08-27 04:11:00,
2013-08-26 23:16:00,71.9,65.0,30.17,SE,135,0.0,0.0,79,0.00,,,0.00,WeatherCatV1.02B3,2013-08-27 04:16:00,
2013-08-26 23:21:00,71.8,64.6,30.17,SE,135,0.0,0.0,78,0.00,,,0.00,WeatherCatV1.02B3,2013-08-27 04:21:00,
2013-08-26 23:26:00,71.7,64.5,30.17,SE,135,0.0,0.0,78,0.00,,,0.00,WeatherCatV1.02B3,2013-08-27 04:26:00,
2013-08-26 23:31:00,71.7,64.5,30.17,SE,135,0.0,0.0,78,0.00,,,0.00,WeatherCatV1.02B3,2013-08-27 04:31:00,
2013-08-26 23:36:00,71.8,64.6,30.17,SE,135,0.0,0.0,78,0.00,,,0.00,WeatherCatV1.02B3,2013-08-27 04:36:00,
2013-08-26 23:41:00,71.8,64.2,30.17,SE,135,0.0,0.0,77,0.00,,,0.00,WeatherCatV1.02B3,2013-08-27 04:41:00,
2013-08-26 23:46:00,71.9,64.3,30.17,SE,135,0.0,0.0,77,0.00,,,0.00,WeatherCatV1.02B3,2013-08-27 04:46:00,
2013-08-26 23:51:00,71.9,64.3,30.17,SE,135,0.0,0.0,77,0.00,,,0.00,WeatherCatV1.02B3,2013-08-27 04:51:00,
2013-08-26 23:56:00,71.9,64.3,30.17,SE,135,0.0,0.0,77,0.00,,,0.00,WeatherCatV1.02B3,2013-08-27 04:56:00,